Time,TemperatureF,DewpointF,PressureIn,WindDirection,WindDirectionDegrees,WindSpeedMPH,WindSpeedGustMPH,Humidity,HourlyPrecipIn,Conditions,Clouds,dailyrainin,SoftwareType,DateUTC
2013-03-06 00:02:00,25.0,21.0,-100.00,North,352,11.0,24.0,85,0.00,,,0.00,,2013-03-06 06:02:00,
2013-03-06 00:11:00,25.0,21.0,-100.00,North,352,11.0,24.0,85,0.00,,,0.00,,2013-03-06 06:11:00,
2013-03-06 00:22:00,25.0,21.0,-100.00,North,352,11.0,24.0,85,0.00,,,0.00,,2013-03-06 06:22:00,
2013-03-06 00:52:00,26.0,22.0,-100.00,North,2,0.0,38.0,86,0.00,,,0.00,,2013-03-06 06:52:00,
2013-03-06 01:01:00,26.0,22.0,-100.00,North,2,0.0,38.0,86,0.00,,,0.00,,2013-03-06 07:01:00,
2013-03-06 01:11:00,26.0,22.0,-100.00,North,2,0.0,38.0,86,0.00,,,0.00,,2013-03-06 07:11:00,
2013-03-06 01:22:00,26.0,22.0,-100.00,North,2,0.0,38.0,86,0.00,,,0.00,,2013-03-06 07:22:00,
2013-03-06 01:52:00,25.0,22.0,-100.00,North,357,0.0,2.0,88,0.00,,,0.00,,2013-03-06 07:52:00,
2013-03-06 02:01:00,25.0,22.0,-100.00,North,357,0.0,2.0,88,0.00,,,0.00,,2013-03-06 08:01:00,
2013-03-06 02:11:00,25.0,22.0,-100.00,North,357,0.0,2.0,88,0.00,,,0.00,,2013-03-06 08:11:00,
2013-03-06 02:21:00,25.0,22.0,-100.00,North,357,0.0,2.0,88,0.00,,,0.00,,2013-03-06 08:21:00,
2013-03-06 02:52:00,25.0,23.0,-100.00,North,350,0.0,2.0,91,0.00,,,0.00,,2013-03-06 08:52:00,
2013-03-06 03:01:00,25.0,23.0,-100.00,North,350,0.0,2.0,91,0.00,,,0.00,,2013-03-06 09:01:00,
2013-03-06 03:12:00,25.0,23.0,-100.00,North,350,0.0,2.0,91,0.00,,,0.00,,2013-03-06 09:12:00,
2013-03-06 03:21:00,25.0,23.0,-100.00,North,350,0.0,2.0,91,0.00,,,0.00,,2013-03-06 09:21:00,
2013-03-06 03:52:00,25.0,23.0,-100.00,North,358,0.0,1.0,92,0.00,,,0.00,,2013-03-06 09:52:00,
2013-03-06 04:01:00,25.0,23.0,-100.00,North,358,0.0,1.0,92,0.00,,,0.00,,2013-03-06 10:01:00,
2013-03-06 04:11:00,25.0,23.0,-100.00,North,358,0.0,1.0,92,0.00,,,0.00,,2013-03-06 10:11:00,
2013-03-06 04:21:00,25.0,23.0,-100.00,North,358,0.0,1.0,92,0.00,,,0.00,,2013-03-06 10:21:00,
2013-03-06 04:52:00,26.0,23.0,-100.00,North,1,0.0,0.0,90,0.00,,,0.00,,2013-03-06 10:52:00,
2013-03-06 05:02:00,26.0,23.0,-100.00,North,1,0.0,0.0,90,0.00,,,0.00,,2013-03-06 11:02:00,
2013-03-06 05:11:00,26.0,23.0,-100.00,North,1,0.0,0.0,90,0.00,,,0.00,,2013-03-06 11:11:00,
2013-03-06 05:22:00,26.0,23.0,-100.00,North,1,0.0,0.0,90,0.00,,,0.00,,2013-03-06 11:22:00,
2013-03-06 05:52:00,26.0,24.0,-100.00,NNE,12,0.0,0.0,92,0.00,,,0.00,,2013-03-06 11:52:00,
2013-03-06 06:02:00,26.0,24.0,-100.00,NNE,12,0.0,0.0,92,0.00,,,0.00,,2013-03-06 12:02:00,
2013-03-06 06:11:00,26.0,24.0,-100.00,NNE,12,0.0,0.0,92,0.00,,,0.00,,2013-03-06 12:11:00,
2013-03-06 06:21:00,26.0,24.0,-100.00,NNE,12,0.0,0.0,92,0.00,,,0.00,,2013-03-06 12:21:00,
2013-03-06 06:53:00,26.0,24.0,-100.00,NNW,333,0.0,2.0,92,0.00,,,0.00,,2013-03-06 12:53:00,
2013-03-06 07:02:00,26.0,24.0,-100.00,NNW,333,0.0,2.0,92,0.00,,,0.00,,2013-03-06 13:02:00,
2013-03-06 07:12:00,26.0,24.0,-100.00,NNW,333,0.0,2.0,92,0.00,,,0.00,,2013-03-06 13:12:00,
2013-03-06 07:22:00,26.0,24.0,-100.00,NNW,333,0.0,2.0,92,0.00,,,0.00,,2013-03-06 13:22:00,
2013-03-06 07:52:00,26.0,24.0,-100.00,NNW,337,0.0,2.0,91,0.00,,,0.00,,2013-03-06 13:52:00,
2013-03-06 08:01:00,26.0,24.0,-100.00,NNW,337,0.0,2.0,91,0.00,,,0.00,,2013-03-06 14:01:00,
2013-03-06 08:11:00,26.0,24.0,-100.00,NNW,337,0.0,2.0,91,0.00,,,0.00,,2013-03-06 14:11:00,
2013-03-06 08:22:00,26.0,24.0,-100.00,NNW,337,0.0,2.0,91,0.00,,,0.00,,2013-03-06 14:22:00,
2013-03-06 08:52:00,27.0,23.0,-100.00,NNW,343,0.0,2.0,86,0.00,,,0.00,,2013-03-06 14:52:00,
2013-03-06 09:02:00,27.0,23.0,-100.00,NNW,343,0.0,2.0,86,0.00,,,0.00,,2013-03-06 15:02:00,
2013-03-06 09:11:00,27.0,23.0,-100.00,NNW,343,0.0,2.0,86,0.00,,,0.00,,2013-03-06 15:11:00,
2013-03-06 09:21:00,27.0,23.0,-100.00,NNW,343,0.0,2.0,86,0.00,,,0.00,,2013-03-06 15:21:00,
2013-03-06 09:52:00,28.0,23.0,-100.00,North,355,0.0,0.0,82,0.00,,,0.00,,2013-03-06 15:52:00,
2013-03-06 10:02:00,28.0,23.0,-100.00,North,355,0.0,0.0,82,0.00,,,0.00,,2013-03-06 16:02:00,
2013-03-06 10:11:00,28.0,23.0,-100.00,North,355,0.0,0.0,82,0.00,,,0.00,,2013-03-06 16:11:00,
2013-03-06 10:21:00,28.0,23.0,-100.00,North,355,0.0,0.0,82,0.00,,,0.00,,2013-03-06 16:21:00,
2013-03-06 10:52:00,30.0,24.0,-100.00,NNW,347,0.0,1.0,78,0.00,,,0.00,,2013-03-06 16:52:00,
2013-03-06 11:01:00,30.0,24.0,-100.00,NNW,347,0.0,1.0,78,0.00,,,0.00,,2013-03-06 17:01:00,
2013-03-06 11:11:00,30.0,24.0,-100.00,NNW,347,0.0,1.0,78,0.00,,,0.00,,2013-03-06 17:11:00,
2013-03-06 11:21:00,30.0,24.0,-100.00,NNW,347,0.0,1.0,78,0.00,,,0.00,,2013-03-06 17:21:00,
2013-03-06 11:28:00,31.0,25.0,-100.00,NNW,334,0.0,10.0,77,0.00,,,0.00,,2013-03-06 17:28:00,
2013-03-06 11:53:00,31.0,25.0,-100.00,NNW,334,0.0,10.0,77,0.00,,,0.00,,2013-03-06 17:53:00,
2013-03-06 12:02:00,31.0,25.0,-100.00,NNW,334,0.0,10.0,77,0.00,,,0.00,,2013-03-06 18:02:00,
2013-03-06 12:53:00,31.0,24.0,-100.00,NNW,334,0.0,2.0,75,0.00,,,0.00,,2013-03-06 18:53:00,
2013-03-06 13:02:00,31.0,24.0,-100.00,NNW,334,0.0,2.0,75,0.00,,,0.00,,2013-03-06 19:02:00,
2013-03-06 13:11:00,31.0,24.0,-100.00,NNW,334,0.0,2.0,75,0.00,,,0.00,,2013-03-06 19:11:00,
2013-03-06 13:22:00,31.0,24.0,-100.00,NNW,334,0.0,2.0,75,0.00,,,0.00,,2013-03-06 19:22:00,
2013-03-06 13:53:00,32.0,24.0,-100.00,NNW,334,0.0,0.0,73,0.00,,,0.00,,2013-03-06 19:53:00,
2013-03-06 14:02:00,32.0,24.0,-100.00,NNW,334,0.0,0.0,73,0.00,,,0.00,,2013-03-06 20:02:00,
2013-03-06 14:12:00,32.0,24.0,-100.00,NNW,334,0.0,0.0,73,0.00,,,0.00,,2013-03-06 20:12:00,
2013-03-06 14:22:00,32.0,24.0,-100.00,NNW,334,0.0,0.0,73,0.00,,,0.00,,2013-03-06 20:22:00,
2013-03-06 14:53:00,32.0,25.0,-100.00,NW,326,0.0,0.0,74,0.00,,,0.00,,2013-03-06 20:53:00,
2013-03-06 15:02:00,32.0,25.0,-100.00,NW,326,0.0,0.0,74,0.00,,,0.00,,2013-03-06 21:02:00,
2013-03-06 15:12:00,32.0,25.0,-100.00,NW,326,0.0,0.0,74,0.00,,,0.00,,2013-03-06 21:12:00,
2013-03-06 15:22:00,32.0,25.0,-100.00,NW,326,0.0,0.0,74,0.00,,,0.00,,2013-03-06 21:22:00,
2013-03-06 15:52:00,32.0,25.0,-100.00,NW,322,0.0,0.0,75,0.00,,,0.00,,2013-03-06 21:52:00,
2013-03-06 16:02:00,32.0,25.0,-100.00,NW,322,0.0,0.0,75,0.00,,,0.00,,2013-03-06 22:02:00,
2013-03-06 16:11:00,32.0,25.0,-100.00,NW,322,0.0,0.0,75,0.00,,,0.00,,2013-03-06 22:11:00,
2013-03-06 16:22:00,32.0,25.0,-100.00,NW,322,0.0,0.0,75,0.00,,,0.00,,2013-03-06 22:22:00,
2013-03-06 16:52:00,32.0,25.0,-100.00,NNW,327,0.0,0.0,76,0.00,,,0.00,,2013-03-06 22:52:00,
2013-03-06 17:01:00,32.0,25.0,-100.00,NNW,327,0.0,0.0,76,0.00,,,0.00,,2013-03-06 23:01:00,
2013-03-06 17:11:00,32.0,25.0,-100.00,NNW,327,0.0,0.0,76,0.00,,,0.00,,2013-03-06 23:11:00,
2013-03-06 17:21:00,32.0,25.0,-100.00,NNW,327,0.0,0.0,76,0.00,,,0.00,,2013-03-06 23:21:00,
2013-03-06 17:52:00,31.0,24.0,-100.00,NW,316,0.0,1.0,76,0.00,,,0.00,,2013-03-06 23:52:00,
2013-03-06 18:02:00,31.0,24.0,-100.00,NW,316,0.0,1.0,76,0.00,,,0.00,,2013-03-07 00:02:00,
2013-03-06 18:11:00,31.0,24.0,-100.00,NW,316,0.0,1.0,76,0.00,,,0.00,,2013-03-07 00:11:00,
2013-03-06 18:21:00,31.0,24.0,-100.00,NW,316,0.0,1.0,76,0.00,,,0.00,,2013-03-07 00:21:00,
2013-03-06 18:52:00,31.0,24.0,-100.00,NNW,333,0.0,0.0,76,0.00,,,0.00,,2013-03-07 00:52:00,
2013-03-06 19:01:00,31.0,24.0,-100.00,NNW,333,0.0,0.0,76,0.00,,,0.00,,2013-03-07 01:01:00,
2013-03-06 19:11:00,31.0,24.0,-100.00,NNW,333,0.0,0.0,76,0.00,,,0.00,,2013-03-07 01:11:00,
2013-03-06 19:21:00,31.0,24.0,-100.00,NNW,333,0.0,0.0,76,0.00,,,0.00,,2013-03-07 01:21:00,
2013-03-06 19:52:00,30.0,25.0,-100.00,NW,307,0.0,0.0,80,0.00,,,0.00,,2013-03-07 01:52:00,
2013-03-06 20:01:00,30.0,25.0,-100.00,NW,307,0.0,0.0,80,0.00,,,0.00,,2013-03-07 02:01:00,
2013-03-06 20:11:00,30.0,25.0,-100.00,NW,307,0.0,0.0,80,0.00,,,0.00,,2013-03-07 02:11:00,
2013-03-06 20:21:00,30.0,25.0,-100.00,NW,307,0.0,0.0,80,0.00,,,0.00,,2013-03-07 02:21:00,
2013-03-06 21:02:00,29.0,23.0,-100.00,NNW,328,0.0,0.0,77,0.00,,,0.00,,2013-03-07 03:02:00,
2013-03-06 21:11:00,29.0,23.0,-100.00,NNW,328,0.0,0.0,77,0.00,,,0.00,,2013-03-07 03:11:00,
2013-03-06 21:21:00,29.0,23.0,-100.00,NNW,328,0.0,0.0,77,0.00,,,0.00,,2013-03-07 03:21:00,
2013-03-06 21:52:00,29.0,22.0,-100.00,NNW,327,0.0,0.0,74,0.00,,,0.00,,2013-03-07 03:52:00,
2013-03-06 22:01:00,29.0,22.0,-100.00,NNW,327,0.0,0.0,74,0.00,,,0.00,,2013-03-07 04:01:00,
2013-03-06 22:11:00,29.0,22.0,-100.00,NNW,327,0.0,0.0,74,0.00,,,0.00,,2013-03-07 04:11:00,
2013-03-06 22:21:00,29.0,22.0,-100.00,NNW,327,0.0,0.0,74,0.00,,,0.00,,2013-03-07 04:21:00,
2013-03-06 22:52:00,28.0,22.0,-100.00,NW,308,0.0,0.0,79,0.00,,,0.00,,2013-03-07 04:52:00,
2013-03-06 23:02:00,28.0,22.0,-100.00,NW,308,0.0,0.0,79,0.00,,,0.00,,2013-03-07 05:02:00,
2013-03-06 23:12:00,28.0,22.0,-100.00,NW,308,0.0,0.0,79,0.00,,,0.00,,2013-03-07 05:12:00,
2013-03-06 23:22:00,28.0,22.0,-100.00,NW,308,0.0,0.0,79,0.00,,,0.00,,2013-03-07 05:22:00,
2013-03-06 23:52:00,27.0,22.0,-100.00,NW,319,0.0,0.0,80,0.00,,,0.00,,2013-03-07 05:52:00,